Tiempo cada hora Mullova

Hoy, 22 Octubre, Jueves

Tiempo Temperatura Precipitaciones Viento Presión Humedad
00:00 +4°C° 0 mm 4 mps 741 mmHg 67%
01:00 +4°C° 0 mm 4 mps 740 mmHg 68%
02:00 +4°C° 0 mm 4 mps 739 mmHg 69%
03:00 +4°C° 0 mm 4 mps 738 mmHg 70%
04:00 +4°C° 0 mm 4 mps 738 mmHg 69%
05:00 +3°C° 0 mm 5 mps 737 mmHg 68%
06:00 +4°C° 0 mm 4 mps 736 mmHg 68%
07:00 +5°C° 0 mm 5 mps 736 mmHg 65%
08:00 +5°C° 0 mm 5 mps 736 mmHg 63%
09:00 +4°C° 0 mm 6 mps 735 mmHg 61%
10:00 +5°C° 0 mm 6 mps 736 mmHg 59%
11:00 +5°C° 0 mm 6 mps 736 mmHg 56%
12:00 +7°C° 0 mm 6 mps 737 mmHg 54%
13:00 +5°C° 0.1 mm 6 mps 737 mmHg 64%
14:00 +5°C° 0.1 mm 6 mps 738 mmHg 73%
15:00 +4°C° 0.1 mm 7 mps 739 mmHg 83%
16:00 +3°C° 0 mm 6 mps 740 mmHg 81%
17:00 +2°C° 0 mm 6 mps 741 mmHg 79%
18:00 +1°C° 0 mm 6 mps 742 mmHg 77%
19:00 +1°C° 0 mm 5 mps 743 mmHg 79%
20:00 0°C° 0 mm 4 mps 744 mmHg 80%
21:00 0°C° 0 mm 4 mps 745 mmHg 81%
22:00 -1°C° 0 mm 4 mps 746 mmHg 83%
23:00 0°C° 0 mm 3 mps 746 mmHg 85%

Mañana, 23 Octubre, Viernes

Tiempo Temperatura Precipitaciones Viento Presión Humedad
00:00 -1°C° 0 mm 3 mps 747 mmHg 87%
01:00 -1°C° 0 mm 3 mps 747 mmHg 87%
02:00 -1°C° 0 mm 3 mps 747 mmHg 87%
03:00 -1°C° 0 mm 3 mps 747 mmHg 87%
04:00 -1°C° 0 mm 3 mps 747 mmHg 85%
05:00 -1°C° 0 mm 3 mps 747 mmHg 83%
06:00 -1°C° 0 mm 3 mps 747 mmHg 81%
07:00 -2°C° 0.2 mm 4 mps 747 mmHg 82%
08:00 -1°C° 0.2 mm 4 mps 747 mmHg 84%
09:00 -1°C° 0.2 mm 5 mps 747 mmHg 86%
10:00 0°C° 0.2 mm 5 mps 747 mmHg 80%
11:00 +1°C° 0.2 mm 5 mps 746 mmHg 73%
12:00 +2°C° 0.2 mm 5 mps 746 mmHg 67%
13:00 +2°C° 0.1 mm 6 mps 746 mmHg 68%
14:00 +2°C° 0.1 mm 6 mps 747 mmHg 69%
15:00 +2°C° 0.1 mm 6 mps 747 mmHg 70%
16:00 +1°C° 0 mm 5 mps 747 mmHg 74%
17:00 0°C° 0 mm 5 mps 748 mmHg 77%
18:00 -1°C° 0 mm 5 mps 749 mmHg 81%
19:00 -1°C° 0.1 mm 4 mps 749 mmHg 81%
20:00 -2°C° 0.1 mm 4 mps 749 mmHg 82%
21:00 -2°C° 0.1 mm 3 mps 750 mmHg 82%
22:00 -2°C° 0 mm 3 mps 750 mmHg 82%
23:00 -2°C° 0 mm 3 mps 750 mmHg 83%

Pasado mañana, 24 Octubre, Sábado

Tiempo Temperatura Precipitaciones Viento Presión Humedad
00:00 -2°C° 0 mm 3 mps 750 mmHg 83%
01:00 -2°C° 0 mm 3 mps 751 mmHg 84%
02:00 -2°C° 0 mm 3 mps 751 mmHg 85%
03:00 -4°C° 0 mm 3 mps 751 mmHg 86%
04:00 -2°C° 0 mm 3 mps 751 mmHg 85%
05:00 -2°C° 0 mm 3 mps 751 mmHg 85%
06:00 -2°C° 0 mm 3 mps 752 mmHg 85%
07:00 -2°C° 0 mm 3 mps 752 mmHg 86%
08:00 -2°C° 0 mm 3 mps 752 mmHg 87%
09:00 -2°C° 0 mm 3 mps 752 mmHg 88%
10:00 -1°C° 0.3 mm 3 mps 752 mmHg 87%
11:00 -1°C° 0.3 mm 3 mps 753 mmHg 86%
12:00 -1°C° 0.3 mm 3 mps 753 mmHg 85%
13:00 -1°C° 0.2 mm 4 mps 753 mmHg 77%
14:00 -1°C° 0.2 mm 4 mps 753 mmHg 69%
15:00 -1°C° 0.2 mm 4 mps 754 mmHg 61%
16:00 -2°C° 0 mm 4 mps 754 mmHg 66%
17:00 -2°C° 0 mm 3 mps 755 mmHg 72%
18:00 -4°C° 0 mm 3 mps 756 mmHg 78%
19:00 -4°C° 0 mm 3 mps 756 mmHg 78%
20:00 -5°C° 0 mm 3 mps 757 mmHg 79%
21:00 -5°C° 0 mm 4 mps 758 mmHg 80%
22:00 -5°C° 0 mm 3 mps 759 mmHg 79%
23:00 -5°C° 0 mm 3 mps 759 mmHg 78%

, 25 Octubre, Domingo

Tiempo Temperatura Precipitaciones Viento Presión Humedad
00:00 -5°C° 0 mm 3 mps 760 mmHg 77%
01:00 -5°C° 0 mm 3 mps 760 mmHg 77%
02:00 -6°C° 0 mm 3 mps 761 mmHg 78%
03:00 -5°C° 0 mm 2 mps 761 mmHg 78%
04:00 -5°C° 0 mm 2 mps 761 mmHg 80%
05:00 -6°C° 0 mm 3 mps 761 mmHg 82%
06:00 -6°C° 0 mm 3 mps 762 mmHg 85%
07:00 -6°C° 0 mm 3 mps 762 mmHg 81%
08:00 -6°C° 0 mm 3 mps 762 mmHg 78%
09:00 -7°C° 0 mm 4 mps 761 mmHg 75%
10:00 -5°C° 0 mm 4 mps 761 mmHg 69%
11:00 -4°C° 0 mm 4 mps 761 mmHg 63%
12:00 -4°C° 0 mm 5 mps 760 mmHg 57%
13:00 -2°C° 0 mm 5 mps 760 mmHg 56%
14:00 -2°C° 0 mm 5 mps 759 mmHg 55%
15:00 -2°C° 0 mm 5 mps 759 mmHg 54%
16:00 -2°C° 0 mm 5 mps 758 mmHg 56%
17:00 -2°C° 0 mm 5 mps 758 mmHg 57%
18:00 -2°C° 0 mm 4 mps 757 mmHg 59%
19:00 -2°C° 0 mm 5 mps 757 mmHg 62%
20:00 -2°C° 0 mm 5 mps 756 mmHg 65%
21:00 -2°C° 0 mm 5 mps 756 mmHg 69%
22:00 -4°C° 0.1 mm 5 mps 755 mmHg 76%
23:00 -4°C° 0.1 mm 5 mps 754 mmHg 83%

25 Octubre, Domingo

Tiempo Temperatura Precipitaciones Viento Presión Humedad
00:00 -5°C° 0 mm 3 mps 760 mmHg 77%
01:00 -5°C° 0 mm 3 mps 760 mmHg 77%
02:00 -6°C° 0 mm 3 mps 761 mmHg 78%
03:00 -5°C° 0 mm 2 mps 761 mmHg 78%
04:00 -5°C° 0 mm 2 mps 761 mmHg 80%
05:00 -6°C° 0 mm 3 mps 761 mmHg 82%
06:00 -6°C° 0 mm 3 mps 762 mmHg 85%
07:00 -6°C° 0 mm 3 mps 762 mmHg 81%
08:00 -6°C° 0 mm 3 mps 762 mmHg 78%
09:00 -7°C° 0 mm 4 mps 761 mmHg 75%
10:00 -5°C° 0 mm 4 mps 761 mmHg 69%
11:00 -4°C° 0 mm 4 mps 761 mmHg 63%
12:00 -4°C° 0 mm 5 mps 760 mmHg 57%
13:00 -2°C° 0 mm 5 mps 760 mmHg 56%
14:00 -2°C° 0 mm 5 mps 759 mmHg 55%
15:00 -2°C° 0 mm 5 mps 759 mmHg 54%
16:00 -2°C° 0 mm 5 mps 758 mmHg 56%
17:00 -2°C° 0 mm 5 mps 758 mmHg 57%
18:00 -2°C° 0 mm 4 mps 757 mmHg 59%
19:00 -2°C° 0 mm 5 mps 757 mmHg 62%
20:00 -2°C° 0 mm 5 mps 756 mmHg 65%
21:00 -2°C° 0 mm 5 mps 756 mmHg 69%
22:00 -4°C° 0.1 mm 5 mps 755 mmHg 76%
23:00 -4°C° 0.1 mm 5 mps 754 mmHg 83%

26 Octubre, Lunes

Tiempo Temperatura Precipitaciones Viento Presión Humedad
00:00 -4°C° 0.1 mm 6 mps 754 mmHg 90%
01:00 -4°C° 0.3 mm 5 mps 753 mmHg 92%
02:00 -4°C° 0.3 mm 5 mps 752 mmHg 93%
03:00 -2°C° 0.3 mm 5 mps 752 mmHg 95%
04:00 -2°C° 0.3 mm 4 mps 751 mmHg 96%
05:00 -2°C° 0.3 mm 4 mps 751 mmHg 97%
06:00 -2°C° 0.3 mm 4 mps 750 mmHg 97%
07:00 0°C° 0.4 mm 3 mps 750 mmHg 98%
08:00 +1°C° 0.4 mm 2 mps 750 mmHg 98%
09:00 +2°C° 0.4 mm 1 mps 750 mmHg 98%
10:00 +2°C° 0.2 mm 2 mps 750 mmHg 98%
11:00 +2°C° 0.2 mm 2 mps 750 mmHg 98%
12:00 +2°C° 0.2 mm 2 mps 750 mmHg 98%
13:00 +2°C° 0.1 mm 2 mps 750 mmHg 98%
14:00 +3°C° 0.1 mm 2 mps 750 mmHg 97%
15:00 +3°C° 0.1 mm 2 mps 751 mmHg 97%
16:00 +2°C° 0 mm 2 mps 751 mmHg 96%
17:00 +2°C° 0 mm 2 mps 751 mmHg 96%
18:00 +2°C° 0 mm 2 mps 751 mmHg 96%
19:00 +2°C° 0 mm 2 mps 752 mmHg 96%
20:00 +1°C° 0 mm 2 mps 752 mmHg 96%
21:00 +2°C° 0 mm 1 mps 752 mmHg 96%
22:00 +1°C° 0 mm 2 mps 751 mmHg 96%
23:00 +1°C° 0 mm 2 mps 751 mmHg 97%

27 Octubre, Martes

Tiempo Temperatura Precipitaciones Viento Presión Humedad
00:00 +1°C° 0 mm 2 mps 751 mmHg 97%
01:00 +2°C° 0 mm 2 mps 750 mmHg 97%
02:00 +2°C° 0 mm 2 mps 750 mmHg 97%
03:00 +2°C° 0 mm 2 mps 749 mmHg 97%
04:00 +2°C° 0.2 mm 2 mps 749 mmHg 97%
05:00 +1°C° 0.2 mm 3 mps 749 mmHg 97%
06:00 +2°C° 0.2 mm 3 mps 748 mmHg 98%
07:00 +2°C° 0.8 mm 3 mps 748 mmHg 98%
08:00 +2°C° 0.8 mm 3 mps 747 mmHg 98%
09:00 +3°C° 0.8 mm 3 mps 747 mmHg 98%
10:00 +3°C° 0.8 mm 3 mps 747 mmHg 98%
11:00 +4°C° 0.8 mm 3 mps 746 mmHg 98%
12:00 +5°C° 0.8 mm 3 mps 746 mmHg 97%
13:00 +5°C° 1.1 mm 3 mps 746 mmHg 96%
14:00 +5°C° 1.1 mm 4 mps 745 mmHg 95%
15:00 +5°C° 1.1 mm 4 mps 745 mmHg 94%
16:00 +4°C° 1.1 mm 4 mps 745 mmHg 93%
17:00 +3°C° 1.1 mm 5 mps 744 mmHg 93%
18:00 +3°C° 1.1 mm 5 mps 744 mmHg 92%
19:00 +3°C° 0.5 mm 5 mps 744 mmHg 91%
20:00 +5°C° 0.5 mm 5 mps 744 mmHg 90%
21:00 +4°C° 0.5 mm 6 mps 744 mmHg 89%
22:00 +5°C° 0.1 mm 5 mps 743 mmHg 88%
23:00 +5°C° 0.1 mm 4 mps 743 mmHg 88%
Mostrar más

Necesitamos Su Consentimiento

Meteoprog y nuestros Proveedores de Servicios pueden almacenar y acceder a sus datos personales como cookies, identificadores de dispositivo u otras tecnologías similares de su dispositivo y procesar dichos datos para personalizar contenido y anuncios, además de ofrecer funciones de redes sociales y analizar el tráfico.

  • Almacenar y/o acceder a información en su dispositivo

    Se puede almacenar o acceder a cookies, identificadores de dispositivo u otra información de su dispositivo para los fines anteriormente indicados.

  • Anuncios y contenido personalizados, medición de anuncios y contenido, percepciones del público, y desarrollo de productos

    Los anuncios y el contenido pueden personalizarse en base a su perfil. Se pueden añadir más datos para personalizar mejor los anuncios y contenidos. Se puede medir el rendimiento de los anuncios y contenidos. Se puede obtener la percepción sobre el público que ha visto los anuncios y contenidos. Dichos datos pueden usarse para desarrollar o mejorar la experiencia del usuario, sistemas y software.

Al hacer clic en ‘Estoy De Acuerdo’ usted permitirá el uso de las cookies, identificadores de dispositivo, balizas web u otras tecnologías similares indicadas. Su configuración puede cambiarse desde el navegador de su dispositivo.

Para ciertos fines, los intereses legítimos pueden ser considerados por encima del consentimiento. Puede leer más sobre ello en nuestra Política de Privacidad y Cookies.